Ely, MN

11:59 AM CDT on May 26, 2017 (GMT -0500)
Ely Municipal

Weather History for KELO - May, 2013

Change the Weather History Date:

Thursday, May 2, 2013

  Actual Average Record
Temperature  
Mean Temperature 34 °F -  
Max Temperature 39 °F 57 °F 77 °F (1999)
Min Temperature 28 °F 32 °F 19 °F (2002)
Degree Days  
Heating Degree Days 32    
Moisture  
Dew Point 20 °F    
Average Humidity 60    
Maximum Humidity 74    
Minimum Humidity 45    
Precipitation  
Precipitation 0.00 in - - ()
Sea Level Pressure  
Sea Level Pressure 30.50 in    
Wind  
Wind Speed 5 mph (NNW)    
Max Wind Speed 12 mph    
Max Gust Speed 22 mph    
Visibility 10 miles    
Events      
Averages and records for this station are not official NWS values.
T = Trace of Precipitation, MM = Missing Value Source: NWS Daily Summary

Daily Weather History Graph

Daily Weather History Graph

Search for Another Location

Airport or City:

Trip Planner

Search our weather history database for the weather conditions in past years. The results will help you decide how hot, cold, wet, or windy it might be!

Date:

Astronomy

May. 02, 2013 Rise Set
Actual Time 5:47 AM CDT 8:21 PM CDT
Civil Twilight 5:12 AM CDT 8:56 PM CDT
Nautical Twilight 4:29 AM CDT 9:40 PM CDT
Astronomical Twilight 3:38 AM CDT 10:32 PM CDT
Moon 2:07 AM CDT (5/2) 12:40 PM CDT (5/2)
Length of Visible Light 15h 43m
Length of Day
14h 34m
Waning Gibbous, 47% of the Moon is Illuminated
May 2
Waning Gibbous
May 9
New
May 17
First Quarter
May 24
Full
May 31
Last Quarter

Hourly Weather History & Observations

Time (CDT) Temp. Windchill Dew Point Humidity Pressure Visibility Wind Dir Wind Speed Gust Speed Precip Events Conditions
12:13 AM 30.2 °F - 21.2 °F 69% 30.49 in 10.0 mi Calm Calm - N/A   Clear
12:33 AM 30.2 °F 25.4 °F 21.2 °F 69% 30.49 in 10.0 mi NNW 4.6 mph - N/A   Clear
12:52 AM 30.2 °F 25.4 °F 21.2 °F 69% 30.50 in 10.0 mi NNW 4.6 mph - N/A   Clear
1:13 AM 30.2 °F 26.7 °F 21.2 °F 69% 30.50 in 10.0 mi NNW 3.5 mph - N/A   Scattered Clouds
1:33 AM 30.2 °F 25.4 °F 21.2 °F 69% 30.51 in 10.0 mi NNW 4.6 mph - N/A   Mostly Cloudy
1:52 AM 30.2 °F 26.7 °F 21.2 °F 69% 30.51 in 10.0 mi North 3.5 mph - N/A   Mostly Cloudy
2:13 AM 28.4 °F 21.2 °F 21.2 °F 74% 30.50 in 10.0 mi NNW 6.9 mph - N/A   Mostly Cloudy
2:33 AM 28.4 °F 21.2 °F 21.2 °F 74% 30.50 in 10.0 mi NNW 6.9 mph - N/A   Mostly Cloudy
2:52 AM 28.4 °F 21.2 °F 21.2 °F 74% 30.50 in 10.0 mi NNW 6.9 mph - N/A   Mostly Cloudy
3:13 AM 28.4 °F 21.2 °F 21.2 °F 74% 30.50 in 10.0 mi NNW 6.9 mph - N/A   Mostly Cloudy
3:33 AM 28.4 °F 24.6 °F 19.4 °F 69% 30.50 in 10.0 mi North 3.5 mph - N/A   Overcast
3:52 AM 28.4 °F 22.2 °F 19.4 °F 69% 30.51 in 10.0 mi North 5.8 mph - N/A   Overcast
4:13 AM 28.4 °F 23.3 °F 19.4 °F 69% 30.52 in 10.0 mi NNW 4.6 mph - N/A   Overcast
4:33 AM 28.4 °F 24.6 °F 19.4 °F 69% 30.52 in 10.0 mi NNW 3.5 mph - N/A   Overcast
4:52 AM 28.4 °F - 19.4 °F 69% 30.52 in 10.0 mi Calm Calm - N/A   Overcast
5:13 AM 28.4 °F 23.3 °F 19.4 °F 69% 30.52 in 10.0 mi North 4.6 mph - N/A   Overcast
5:32 AM 28.4 °F 23.3 °F 19.4 °F 69% 30.52 in 10.0 mi North 4.6 mph - N/A   Overcast
5:53 AM 28.4 °F 21.2 °F 19.4 °F 69% 30.53 in 10.0 mi North 6.9 mph - N/A   Overcast
6:12 AM 28.4 °F 24.6 °F 19.4 °F 69% 30.53 in 10.0 mi NNW 3.5 mph - N/A   Overcast
6:33 AM 28.4 °F - 19.4 °F 69% 30.53 in 10.0 mi Calm Calm - N/A   Overcast
6:53 AM 28.4 °F 24.6 °F 19.4 °F 69% 30.53 in 10.0 mi North 3.5 mph - N/A   Overcast
7:12 AM 28.4 °F 22.2 °F 19.4 °F 69% 30.53 in 10.0 mi North 5.8 mph - N/A   Overcast
7:33 AM 28.4 °F 23.3 °F 19.4 °F 69% 30.53 in 10.0 mi NNE 4.6 mph - N/A   Overcast
7:53 AM 28.4 °F 22.2 °F 19.4 °F 69% 30.54 in 10.0 mi North 5.8 mph - N/A   Overcast
8:12 AM 28.4 °F 20.4 °F 19.4 °F 69% 30.55 in 10.0 mi NW 8.1 mph - N/A   Overcast
8:33 AM 28.4 °F 21.2 °F 19.4 °F 69% 30.55 in 10.0 mi North 6.9 mph - N/A   Overcast
8:53 AM 30.2 °F 23.4 °F 19.4 °F 64% 30.54 in 10.0 mi NNW 6.9 mph - N/A   Overcast
9:12 AM 30.2 °F 24.3 °F 19.4 °F 64% 30.54 in 10.0 mi North 5.8 mph - N/A   Mostly Cloudy
9:33 AM 30.2 °F 23.4 °F 19.4 °F 64% 30.54 in 10.0 mi North 6.9 mph - N/A   Mostly Cloudy
9:53 AM 30.2 °F 21.3 °F 19.4 °F 64% 30.53 in 10.0 mi NNW 10.4 mph 18.4 mph N/A   Overcast
10:12 AM 30.2 °F 21.3 °F 19.4 °F 64% 30.53 in 10.0 mi North 10.4 mph 16.1 mph N/A   Mostly Cloudy
10:33 AM 30.2 °F 21.3 °F 19.4 °F 64% 30.54 in 10.0 mi NW 10.4 mph - N/A   Overcast
10:53 AM 30.2 °F 23.4 °F 19.4 °F 64% 30.54 in 10.0 mi North 6.9 mph - N/A   Mostly Cloudy
11:09 AM 30.2 °F 24.3 °F 19.4 °F 64% 30.54 in 10.0 mi North 5.8 mph - N/A   Overcast
11:32 AM 32.0 °F 24.2 °F 19.4 °F 60% 30.54 in 10.0 mi NW 9.2 mph - N/A   Overcast
11:53 AM 33.8 °F 26.4 °F 19.4 °F 56% 30.54 in 10.0 mi NW 9.2 mph 17.3 mph N/A   Overcast
12:12 PM 33.8 °F 27.7 °F 19.4 °F 56% 30.54 in 10.0 mi NNW 6.9 mph - N/A   Mostly Cloudy
12:33 PM 33.8 °F 27.7 °F 19.4 °F 56% 30.54 in 10.0 mi NNE 6.9 mph - N/A   Mostly Cloudy
12:53 PM 35.6 °F 27.5 °F 19.4 °F 52% 30.53 in 10.0 mi NNW 11.5 mph - N/A   Mostly Cloudy
1:12 PM 35.6 °F 31.7 °F 19.4 °F 52% 30.52 in 10.0 mi North 4.6 mph - N/A   Overcast
1:33 PM 35.6 °F 31.7 °F 19.4 °F 52% 30.51 in 10.0 mi North 4.6 mph - N/A   Mostly Cloudy
1:53 PM 35.6 °F 29.2 °F 19.4 °F 52% 30.51 in 10.0 mi North 8.1 mph 17.3 mph N/A   Mostly Cloudy
2:12 PM 37.4 °F 30.8 °F 19.4 °F 48% 30.50 in 10.0 mi North 9.2 mph - N/A   Mostly Cloudy
2:33 PM 39.2 °F 33.6 °F 19.4 °F 45% 30.49 in 10.0 mi NNW 8.1 mph - N/A   Scattered Clouds
2:53 PM 37.4 °F 29.8 °F 19.4 °F 48% 30.49 in 10.0 mi NNW 11.5 mph 18.4 mph N/A   Clear
3:12 PM 37.4 °F 32.8 °F 19.4 °F 48% 30.49 in 10.0 mi WNW 5.8 mph 21.9 mph N/A   Scattered Clouds
3:33 PM 39.2 °F 33.0 °F 19.4 °F 45% 30.48 in 10.0 mi NNW 9.2 mph 16.1 mph N/A   Scattered Clouds
3:52 PM 39.2 °F 34.2 °F 19.4 °F 45% 30.48 in 10.0 mi NNE 6.9 mph - N/A   Scattered Clouds
4:13 PM 39.2 °F 35.0 °F 19.4 °F 45% 30.47 in 10.0 mi North 5.8 mph - N/A   Scattered Clouds
4:32 PM 39.2 °F 32.5 °F 19.4 °F 45% 30.47 in 10.0 mi NNW 10.4 mph 19.6 mph N/A   Clear
4:53 PM 39.2 °F 35.0 °F 19.4 °F 45% 30.46 in 10.0 mi North 5.8 mph - N/A   Scattered Clouds
5:13 PM 39.2 °F 33.6 °F 19.4 °F 45% 30.46 in 10.0 mi NNW 8.1 mph - N/A   Scattered Clouds
5:32 PM 39.2 °F 32.5 °F 19.4 °F 45% 30.47 in 10.0 mi NNE 10.4 mph - N/A   Scattered Clouds
5:53 PM 39.2 °F 33.6 °F 19.4 °F 45% 30.47 in 10.0 mi NNE 8.1 mph - N/A   Scattered Clouds
6:13 PM 37.4 °F 30.8 °F 19.4 °F 48% 30.47 in 10.0 mi NNE 9.2 mph - N/A   Clear
6:32 PM 37.4 °F 32.1 °F 19.4 °F 48% 30.46 in 10.0 mi NNE 6.9 mph - N/A   Scattered Clouds
6:53 PM 37.4 °F 33.8 °F 19.4 °F 48% 30.47 in 10.0 mi North 4.6 mph - N/A   Scattered Clouds
7:13 PM 37.4 °F 32.8 °F 19.4 °F 48% 30.47 in 10.0 mi North 5.8 mph - N/A   Clear
7:32 PM 37.4 °F 33.8 °F 19.4 °F 48% 30.47 in 10.0 mi North 4.6 mph - N/A   Clear
7:53 PM 35.6 °F 29.9 °F 19.4 °F 52% 30.47 in 10.0 mi NNW 6.9 mph - N/A   Clear
8:13 PM 35.6 °F 28.6 °F 21.2 °F 56% 30.47 in 10.0 mi NW 9.2 mph - N/A   Clear
8:32 PM 33.8 °F 29.6 °F 21.2 °F 60% 30.47 in 10.0 mi NNW 4.6 mph - N/A   Clear
8:53 PM 33.8 °F 28.6 °F 21.2 °F 60% 30.47 in 10.0 mi NNW 5.8 mph - N/A   Clear
9:13 PM 33.8 °F 29.6 °F 21.2 °F 60% 30.48 in 10.0 mi NNW 4.6 mph - N/A   Clear
9:32 PM 33.8 °F 29.6 °F 21.2 °F 60% 30.48 in 10.0 mi NNW 4.6 mph - N/A   Clear
9:53 PM 32.0 °F 28.7 °F 21.2 °F 64% 30.48 in 10.0 mi NNW 3.5 mph - N/A   Clear
10:13 PM 32.0 °F 26.4 °F 19.4 °F 60% 30.47 in 10.0 mi NNW 5.8 mph - N/A   Clear
10:32 PM 32.0 °F 26.4 °F 19.4 °F 60% 30.47 in 10.0 mi NNW 5.8 mph - N/A   Clear
10:53 PM 30.2 °F 25.4 °F 19.4 °F 64% 30.46 in 10.0 mi North 4.6 mph - N/A   Clear
11:13 PM 30.2 °F 25.4 °F 19.4 °F 64% 30.46 in 10.0 mi North 4.6 mph - N/A   Clear
11:32 PM 30.2 °F - 19.4 °F 64% 30.46 in 10.0 mi Calm Calm - N/A   Clear
11:53 PM 30.2 °F 25.4 °F 21.2 °F 69% 30.46 in 10.0 mi North 4.6 mph - N/A   Clear